This demonstration page uses our WeatherBlox Daily Observations layout. Learn more.

Left ArrowRight Arrow

53.62937, 11.41316

Hourly Observations for July 19, 2018

Temp ( °F °C ) Dew Point ( °F °C ) Humidity (%) Winds ( mph kmh ) Pressure ( in mb ) Visibility ( mi km ) Precip ( " mm )
6:50 am 06:50 Mostly Sunny 57 14 54 12 88 88 VRB 2 4 30.06 1018 7 11 N/A
7:20 am 07:20 Mostly Sunny 59 15 55 13 88 88 VRB 1 2 30.06 1018 7 11 N/A
7:50 am 07:50 Mostly Sunny 61 16 55 13 83 83 VRB 2 4 30.06 1018 7 11 N/A
8:20 am 08:20 Mostly Sunny 64 18 57 14 78 78 VRB 2 4 30.06 1018 7 11 N/A
8:50 am 08:50 Mostly Sunny 66 19 55 13 68 68 VRB 5 7 30.06 1018 7 11 N/A
9:20 am 09:20 Mostly Sunny 68 20 54 12 60 60 VRB 5 7 30.06 1018 7 11 N/A
9:50 am 09:50 Mostly Sunny 70 21 54 12 57 57 VRB 5 7 30.09 1019 7 11 N/A
10:20 am 10:20 Mostly Sunny 70 21 54 12 57 57 VRB 3 6 30.06 1018 7 11 N/A
10:50 am 10:50 Mostly Sunny 70 21 54 12 57 57 VRB 5 7 30.09 1019 30 48 N/A
11:20 am 11:20 Mostly Sunny 72 22 52 11 50 50 VRB 5 7 30.06 1018 30 48 N/A
11:50 am 11:50 Mostly Sunny 72 22 52 11 50 50 VRB 5 7 30.06 1018 30 48 N/A
12:20 pm 12:20 Mostly Sunny 73 23 50 10 44 44 VRB 6 9 30.06 1018 30 48 N/A
12:50 pm 12:50 Mostly Sunny 75 24 50 10 41 41 VRB 5 7 30.06 1018 7 11 N/A
1:20 pm 13:20 Mostly Sunny 72 22 50 10 47 47 WSW 9 15 30.06 1018 7 11 N/A
1:50 pm 13:50 Mostly Sunny 73 23 48 9 41 41 VRB 6 9 30.06 1018 7 11 N/A
2:20 pm 14:20 Mostly Sunny 75 24 52 11 44 44 VRB 5 7 30.06 1018 7 11 N/A
2:50 pm 14:50 Mostly Sunny 75 24 52 11 44 44 VRB 5 7 30.06 1018 7 11 N/A
3:20 pm 15:20 Mostly Sunny 75 24 50 10 41 41 W 5 7 30.06 1018 7 11 N/A
3:50 pm 15:50 Mostly Sunny 77 25 50 10 39 39 VRB 5 7 30.03 1017 7 11 N/A
4:20 pm 16:20 Mostly Sunny 77 25 50 10 39 39 WSW 8 13 30.03 1017 7 11 N/A
4:50 pm 16:50 Mostly Sunny 77 25 50 10 39 39 W 7 11 30.03 1017 7 11 N/A
5:20 pm 17:20 Mostly Sunny 75 24 50 10 41 41 W 6 9 30.03 1017 7 11 N/A
5:50 pm 17:50 Mostly Sunny 75 24 50 10 41 41 WSW 6 9 30.03 1017 7 11 N/A
6:20 pm 18:20 Mostly Sunny 75 24 48 9 39 39 VRB 6 9 30.03 1017 7 11 N/A
6:50 pm 18:50 Mostly Sunny 73 23 48 9 41 41 VRB 6 9 30.03 1017 7 11 N/A
7:20 pm 19:20 Mostly Sunny 73 23 48 9 41 41 WSW 6 9 30.03 1017 7 11 N/A
7:50 pm 19:50 Mostly Sunny 73 23 48 9 41 41 VRB 5 7 30.03 1017 7 11 N/A
8:20 pm 20:20 Mostly Sunny 73 23 50 10 44 44 W 5 7 30.03 1017 7 11 N/A
8:50 pm 20:50 Mostly Sunny 70 21 50 10 50 50 WSW 3 6 30.03 1017 7 11 N/A

Powered by AerisWeather